SCP
0 0 0 0 0 0 0 0 0 0 0 0 0 0 0 0 0 0 0 0 0 0 0 0 0 0 0 0 0 0 0 0 0 0 0 0 0 0
0 0 0 0 0 0 0 0 0 0 0 0 0 0 0 0 0 0 0 0 0 0 0 0 0 0 0 0 0 0 0 0 0 0 0 0 0 0
0 0 0 0 0 0 0 0 0 0 0 0 0 0 0 0 0 0 0 0 0 0 0 0 0 0 0 0 0 0 0 0 0 0 0 0 0 0
0 0 0 0 0 0 0 0 0 0 0 0 0 0 0 0 0 0 0 0 0 0 0 0 0 0 0 0 0 0 0 0 0 0 0 0 0 0
0 0 0 0 0 0 0 0 0 0 0 0 0 0 0 0 0 0 0 0 0 0 0 0 0 0 0 0 0 0 0 0 0 0 0 0 0 0
0 0 0 0 0 0 0 0 0 0 0 0 0 0 0 0 0 0 0 0 0 0 0 0 0 0 0 0 0 0 0 0 0 -0 -0 0 0 0
0 0 0 0 0 0 0 0 0 0 0 0 0 0 0 0 0 0 0 0 0 0 0 0 0 0 0 0 0 0 0 0 0 -0 0 0 0 0
0 0 0 0 0 0 0 0 0 0 0 0 0 0 0 0 0 0 0 0 0 0 0 0 0 0 0 0 0 0 0 0 0 0 0 0 0 0
0 0 0 0 0 0 0 0 0 0 0 0 0 0 0 0 0 0 0 0 0 0 0 0 0 0 0 0 0 0 0 0 0 -0 -0 0 0 0
0 0 0 0 0 0 0 0 0 0 0 0 0 0 0 0 0 0 0 0 0 0 0 0 0 0 0 0 0 0 0 0 -0 -0 -0 0 -0 0
0 0 0 0 0 0 0 0 0 0 0 0 0 0 0 0 0 0 0 0 0 0 0 0 0 0 0 0 0 0 0 0 0 -0 0 0 0 0
0 0 0 0 0 0 0 0 0 0 0 0 0 0 0 0 0 0 0 0 0 0 0 0 0 0 0 0 0 0 0 0 0 0 -0 0 -0 -0
0 0 0 0 0 0 0 0 0 0 0 0 0 0 0 0 0 0 0 0 0 0 0 0 0 0 0 0 0 0 0 0 0 0 0 0 -0 0
0 0 0 0 0 0 0 0 0 0 0 0 0 0 0 0 0 0 0 0 0 0 0 0 0 0 0 0 0 0 0 0 0 0 0 0 0 -0
0 0 0 0 0 0 0 0 0 0 0 0 0 0 0 0 0 0 0 0 0 0 0 0 0 0 0 0 0 0 -0 0 0 0 0 0 0 0
0 0 0 0 0 0 0 0 0 0 0 0 0 0 0 0 0 0 0 0 0 0 0 0 0 0 0 0 0 -0 -0 0 0 0 0 0 0 0
0 0 0 0 0 0 0 0 0 0 0 0 0 0 0 0 0 0 0 0 0 0 0 0 0 0 0 0 0 -0 -0 0 0 0 0 0 0 0
0 0 0 0 0 0 0 0 0 0 0 0 0 0 0 0 0 0 0 0 0 0 0 0 0 0 0 0 0 -0 0 0 0 0 -0 0 0 0
0 0 0 0 0 0 0 0 0 0 0 0 0 0 0 0 0 0 0 0 0 0 0 0 0 0 -0 -0 0 -0 0 0 0 0 0 0 0 0
0 0 0 0 0 0 0 0 0 0 0 0 0 0 0 0 0 0 0 0 0 0 0 0 0 0 -0 -0 0 0 0 0 0 0 0 0 0 0
0 0 0 0 0 0 0 0 0 0 0 0 0 0 0 0 0 0 0 0 0 0 0 0 0 0 -0 -0 -0 0 0 -0 0 -0 0 0 0 0
0 0 0 0 0 0 0 0 0 0 0 0 0 0 0 0 0 0 0 0 0 0 0 0 0 0 -0 -0 0 0 0 0 -0 -0 0 0 0 0
0 0 0 0 0 0 0 0 0 0 0 0 0 0 0 0 0 0 0 0 0 0 0 -0 -0 -0 -0 0 0 0 0 0 0 0 0 -0 -0 -0
Wind_Speed_500mb
14 11 9 10 11 12 12 12 13 13 21 20 28 32 36 40 45 48 52 55 60 63 69 75 80 86 88 88 86 79 80 81 83 82 78 78 75 73
14 12 11 12 12 12 12 15 18 20 19 26 30 35 36 42 48 52 55 58 63 66 70 76 81 85 91 87 83 78 80 81 81 82 80 75 74 73
15 14 13 13 13 14 15 17 20 25 30 33 37 39 42 47 52 56 60 64 68 68 73 78 81 87 87 87 88 88 80 77 76 75 74 73 72 69
16 15 15 15 16 17 18 19 22 28 34 39 43 45 47 51 57 61 66 69 73 73 79 80 81 86 89 90 91 86 81 75 72 71 70 67 68 71
15 18 18 19 19 21 22 23 26 31 36 43 49 52 56 57 62 65 69 74 79 79 82 82 82 88 91 92 90 87 85 75 70 71 72 70 68 68
26 24 24 23 25 27 28 29 32 36 40 46 52 57 61 63 67 72 76 79 85 84 87 91 91 92 94 91 90 87 84 75 77 74 70 67 65 63
31 30 30 29 31 34 36 35 38 42 46 51 57 61 65 67 68 72 78 83 88 87 95 98 96 97 99 92 92 89 80 74 71 64 61 65 62 62
39 37 36 36 38 42 44 44 46 49 52 57 61 65 68 68 68 71 75 79 87 84 100 102 98 98 100 97 94 89 75 68 63 66 69 70 64 61
46 46 44 43 45 49 51 53 55 56 60 63 66 68 72 70 70 69 67 74 83 91 91 104 96 99 99 101 96 79 76 65 72 67 61 63 59 56
59 55 53 52 52 54 57 61 62 64 64 63 68 71 71 68 62 58 68 75 86 91 81 93 91 98 103 104 91 87 86 78 66 63 59 61 61 58
69 63 61 60 56 58 64 67 70 73 70 69 70 71 70 55 43 63 69 69 88 94 82 71 90 100 104 106 101 92 84 80 74 64 66 56 54 52
73 70 68 66 62 63 67 71 77 79 76 75 73 69 65 64 61 61 59 68 73 85 53 73 87 85 80 108 105 95 92 80 79 65 44 49 50 50
79 76 73 69 67 67 70 75 79 78 79 77 78 77 72 69 67 61 62 67 68 74 72 60 80 80 74 92 107 98 89 88 74 56 51 52 48 46
82 79 77 72 72 73 73 74 73 69 70 72 74 76 75 73 73 70 73 69 67 71 67 57 69 69 71 86 98 95 88 79 63 55 62 54 43 40
80 78 77 76 78 78 72 64 56 59 63 68 71 76 76 75 74 76 77 73 68 69 64 56 60 64 63 73 84 88 89 75 53 64 59 50 51 47
75 77 76 75 73 71 71 64 61 60 62 67 71 74 75 73 74 75 77 77 71 71 67 55 54 56 65 63 70 77 64 62 66 64 61 56 48 41
61 65 65 66 66 64 62 63 64 63 62 61 63 68 73 72 72 73 73 67 62 69 72 58 49 54 57 57 61 56 60 61 60 64 58 57 47 44
53 55 55 57 57 57 59 58 58 64 70 72 72 73 73 71 71 66 58 55 61 62 61 54 52 55 60 56 42 51 57 63 58 56 53 57 57 41
44 46 45 47 50 54 61 67 73 72 70 68 67 66 64 60 54 54 52 54 57 53 51 44 42 43 54 61 64 50 61 59 57 53 53 52 51 44
38 43 49 55 60 65 66 67 67 67 64 61 58 55 52 49 51 49 49 50 51 47 44 34 30 35 42 53 65 59 43 52 52 53 51 45 45 36
44 46 47 50 52 56 58 58 58 55 52 50 47 44 43 46 49 48 47 47 44 41 38 31 25 28 36 42 51 56 43 37 36 37 38 44 47 36
42 43 43 46 48 48 49 49 47 44 42 42 41 42 41 41 43 42 41 40 37 35 33 28 24 28 32 41 49 50 50 43 26 21 21 28 28 30
42 42 40 39 41 41 42 41 40 38 38 38 38 38 38 38 37 37 37 35 33 31 28 28 24 25 29 36 44 47 46 44 38 34 30 20 22 23
Wind_Direction_500mb
197 210 226 245 254 262 270 282 287 281 297 309 319 324 326 326 328 333 336 339 339 339 340 339 336 335 331 328 326 323 320 316 312 308 306 304 301 299
208 219 225 232 241 252 266 275 278 280 279 300 311 314 320 323 327 328 330 333 332 337 339 335 335 333 330 330 326 322 318 314 310 306 304 303 302 300
212 215 221 229 243 256 266 272 281 288 296 305 310 315 319 322 323 323 325 327 328 335 334 332 334 330 330 329 328 326 320 315 312 307 305 303 303 303
219 222 228 236 247 257 265 273 284 292 301 308 312 314 316 320 319 320 321 323 325 333 330 331 330 328 332 329 328 327 324 317 314 311 304 304 305 304
236 237 236 242 250 261 270 279 287 294 302 308 312 315 315 316 317 317 318 321 323 327 325 327 328 329 329 330 329 330 326 320 318 312 308 305 304 304
240 240 247 248 254 263 270 278 286 293 300 306 309 312 311 316 314 316 317 320 319 322 322 324 328 327 327 330 329 330 329 322 315 310 306 305 301 302
241 247 250 253 260 266 271 278 284 291 296 301 304 306 309 312 313 315 315 315 317 320 320 323 324 325 325 329 331 334 328 322 321 318 314 310 306 307
246 251 253 258 264 269 273 277 281 286 292 295 298 300 305 305 309 310 311 312 320 317 320 318 323 322 323 328 333 332 329 323 323 314 309 308 306 303
252 253 257 263 266 271 276 279 283 288 290 292 294 297 299 302 304 304 304 310 313 316 318 313 321 320 322 325 330 332 334 326 320 319 316 312 310 307
256 254 260 264 267 271 275 277 280 282 285 285 288 291 293 294 300 298 300 308 307 313 318 314 321 319 321 322 328 334 335 330 326 322 320 313 309 306
258 257 261 266 269 272 275 277 280 282 283 285 286 288 291 294 283 276 293 302 311 315 317 313 319 317 319 320 327 331 332 335 333 325 320 318 315 313
258 257 261 266 270 273 275 277 279 283 287 286 285 285 286 286 287 290 293 302 310 310 307 311 314 320 321 319 320 327 332 336 335 330 331 327 320 319
260 262 264 268 273 276 278 279 282 286 286 287 290 293 294 296 299 294 293 304 307 304 310 311 311 314 311 313 316 325 331 335 332 333 331 331 331 323
262 265 269 273 274 276 278 279 280 282 283 286 288 289 293 295 299 295 297 300 303 305 309 309 304 308 309 309 312 323 327 331 331 328 333 332 334 338
265 270 273 275 277 279 279 281 280 277 276 277 280 286 291 295 295 295 296 296 299 305 308 308 303 305 305 307 310 318 324 328 331 331 328 332 341 346
260 266 273 276 278 281 284 287 285 285 282 283 285 286 288 290 290 290 292 292 294 303 307 308 305 303 304 308 311 316 325 323 327 332 332 330 332 345
260 263 267 271 273 274 275 277 279 282 284 287 287 288 290 291 292 292 289 287 296 304 307 309 305 302 304 312 316 324 328 330 330 329 329 327 336 349
265 268 267 268 272 277 280 284 286 290 294 295 294 294 292 292 290 288 285 290 297 302 304 307 310 309 311 316 328 335 330 330 328 326 334 335 333 351
270 275 275 278 279 281 285 289 292 296 298 300 300 299 297 294 288 286 288 291 296 302 302 304 310 319 323 328 328 347 331 332 331 328 332 334 333 343
266 269 272 275 279 284 289 293 296 298 301 301 301 302 299 293 288 288 289 295 300 302 297 301 308 320 332 327 322 332 348 338 332 328 331 331 337 350
273 273 276 280 285 289 292 295 298 300 302 305 310 312 306 293 287 290 293 297 299 297 294 303 310 319 328 325 329 336 344 349 339 333 334 329 338 353
275 279 284 288 291 293 296 298 302 306 307 309 311 310 308 299 295 295 295 297 297 290 292 299 308 317 331 343 342 342 343 350 1 4 344 335 347 337
283 286 288 290 293 296 300 305 309 309 308 308 306 303 304 303 299 297 297 297 294 287 292 295 301 312 330 339 348 350 347 354 0 9 20 8 352 340
Wind_Speed_850mb
14 11 9 10 11 12 12 12 13 13 21 20 28 32 36 40 45 48 52 55 60 63 69 75 80 86 88 88 86 79 80 81 83 82 78 78 75 73
14 12 11 12 12 12 12 15 18 20 19 26 30 35 36 42 48 52 55 58 63 66 70 76 81 85 91 87 83 78 80 81 81 82 80 75 74 73
15 14 13 13 13 14 15 17 20 25 30 33 37 39 42 47 52 56 60 64 68 68 73 78 81 87 87 87 88 88 80 77 76 75 74 73 72 69
16 15 15 15 16 17 18 19 22 28 34 39 43 45 47 51 57 61 66 69 73 73 79 80 81 86 89 90 91 86 81 75 72 71 70 67 68 71
15 18 18 19 19 21 22 23 26 31 36 43 49 52 56 57 62 65 69 74 79 79 82 82 82 88 91 92 90 87 85 75 70 71 72 70 68 68
26 24 24 23 25 27 28 29 32 36 40 46 52 57 61 63 67 72 76 79 85 84 87 91 91 92 94 91 90 87 84 75 77 74 70 67 65 63
31 30 30 29 31 34 36 35 38 42 46 51 57 61 65 67 68 72 78 83 88 87 95 98 96 97 99 92 92 89 80 74 71 64 61 65 62 62
39 37 36 36 38 42 44 44 46 49 52 57 61 65 68 68 68 71 75 79 87 84 100 102 98 98 100 97 94 89 75 68 63 66 69 70 64 61
46 46 44 43 45 49 51 53 55 56 60 63 66 68 72 70 70 69 67 74 83 91 91 104 96 99 99 101 96 79 76 65 72 67 61 63 59 56
59 55 53 52 52 54 57 61 62 64 64 63 68 71 71 68 62 58 68 75 86 91 81 93 91 98 103 104 91 87 86 78 66 63 59 61 61 58
69 63 61 60 56 58 64 67 70 73 70 69 70 71 70 55 43 63 69 69 88 94 82 71 90 100 104 106 101 92 84 80 74 64 66 56 54 52
73 70 68 66 62 63 67 71 77 79 76 75 73 69 65 64 61 61 59 68 73 85 53 73 87 85 80 108 105 95 92 80 79 65 44 49 50 50
79 76 73 69 67 67 70 75 79 78 79 77 78 77 72 69 67 61 62 67 68 74 72 60 80 80 74 92 107 98 89 88 74 56 51 52 48 46
82 79 77 72 72 73 73 74 73 69 70 72 74 76 75 73 73 70 73 69 67 71 67 57 69 69 71 86 98 95 88 79 63 55 62 54 43 40
80 78 77 76 78 78 72 64 56 59 63 68 71 76 76 75 74 76 77 73 68 69 64 56 60 64 63 73 84 88 89 75 53 64 59 50 51 47
75 77 76 75 73 71 71 64 61 60 62 67 71 74 75 73 74 75 77 77 71 71 67 55 54 56 65 63 70 77 64 62 66 64 61 56 48 41
61 65 65 66 66 64 62 63 64 63 62 61 63 68 73 72 72 73 73 67 62 69 72 58 49 54 57 57 61 56 60 61 60 64 58 57 47 44
53 55 55 57 57 57 59 58 58 64 70 72 72 73 73 71 71 66 58 55 61 62 61 54 52 55 60 56 42 51 57 63 58 56 53 57 57 41
44 46 45 47 50 54 61 67 73 72 70 68 67 66 64 60 54 54 52 54 57 53 51 44 42 43 54 61 64 50 61 59 57 53 53 52 51 44
38 43 49 55 60 65 66 67 67 67 64 61 58 55 52 49 51 49 49 50 51 47 44 34 30 35 42 53 65 59 43 52 52 53 51 45 45 36
44 46 47 50 52 56 58 58 58 55 52 50 47 44 43 46 49 48 47 47 44 41 38 31 25 28 36 42 51 56 43 37 36 37 38 44 47 36
42 43 43 46 48 48 49 49 47 44 42 42 41 42 41 41 43 42 41 40 37 35 33 28 24 28 32 41 49 50 50 43 26 21 21 28 28 30
42 42 40 39 41 41 42 41 40 38 38 38 38 38 38 38 37 37 37 35 33 31 28 28 24 25 29 36 44 47 46 44 38 34 30 20 22 23
Wind_Direction_850mb
197 210 226 245 254 262 270 282 287 281 297 309 319 324 326 326 328 333 336 339 339 339 340 339 336 335 331 328 326 323 320 316 312 308 306 304 301 299
208 219 225 232 241 252 266 275 278 280 279 300 311 314 320 323 327 328 330 333 332 337 339 335 335 333 330 330 326 322 318 314 310 306 304 303 302 300
212 215 221 229 243 256 266 272 281 288 296 305 310 315 319 322 323 323 325 327 328 335 334 332 334 330 330 329 328 326 320 315 312 307 305 303 303 303
219 222 228 236 247 257 265 273 284 292 301 308 312 314 316 320 319 320 321 323 325 333 330 331 330 328 332 329 328 327 324 317 314 311 304 304 305 304
236 237 236 242 250 261 270 279 287 294 302 308 312 315 315 316 317 317 318 321 323 327 325 327 328 329 329 330 329 330 326 320 318 312 308 305 304 304
240 240 247 248 254 263 270 278 286 293 300 306 309 312 311 316 314 316 317 320 319 322 322 324 328 327 327 330 329 330 329 322 315 310 306 305 301 302
241 247 250 253 260 266 271 278 284 291 296 301 304 306 309 312 313 315 315 315 317 320 320 323 324 325 325 329 331 334 328 322 321 318 314 310 306 307
246 251 253 258 264 269 273 277 281 286 292 295 298 300 305 305 309 310 311 312 320 317 320 318 323 322 323 328 333 332 329 323 323 314 309 308 306 303
252 253 257 263 266 271 276 279 283 288 290 292 294 297 299 302 304 304 304 310 313 316 318 313 321 320 322 325 330 332 334 326 320 319 316 312 310 307
256 254 260 264 267 271 275 277 280 282 285 285 288 291 293 294 300 298 300 308 307 313 318 314 321 319 321 322 328 334 335 330 326 322 320 313 309 306
258 257 261 266 269 272 275 277 280 282 283 285 286 288 291 294 283 276 293 302 311 315 317 313 319 317 319 320 327 331 332 335 333 325 320 318 315 313
258 257 261 266 270 273 275 277 279 283 287 286 285 285 286 286 287 290 293 302 310 310 307 311 314 320 321 319 320 327 332 336 335 330 331 327 320 319
260 262 264 268 273 276 278 279 282 286 286 287 290 293 294 296 299 294 293 304 307 304 310 311 311 314 311 313 316 325 331 335 332 333 331 331 331 323
262 265 269 273 274 276 278 279 280 282 283 286 288 289 293 295 299 295 297 300 303 305 309 309 304 308 309 309 312 323 327 331 331 328 333 332 334 338
265 270 273 275 277 279 279 281 280 277 276 277 280 286 291 295 295 295 296 296 299 305 308 308 303 305 305 307 310 318 324 328 331 331 328 332 341 346
260 266 273 276 278 281 284 287 285 285 282 283 285 286 288 290 290 290 292 292 294 303 307 308 305 303 304 308 311 316 325 323 327 332 332 330 332 345
260 263 267 271 273 274 275 277 279 282 284 287 287 288 290 291 292 292 289 287 296 304 307 309 305 302 304 312 316 324 328 330 330 329 329 327 336 349
265 268 267 268 272 277 280 284 286 290 294 295 294 294 292 292 290 288 285 290 297 302 304 307 310 309 311 316 328 335 330 330 328 326 334 335 333 351
270 275 275 278 279 281 285 289 292 296 298 300 300 299 297 294 288 286 288 291 296 302 302 304 310 319 323 328 328 347 331 332 331 328 332 334 333 343
266 269 272 275 279 284 289 293 296 298 301 301 301 302 299 293 288 288 289 295 300 302 297 301 308 320 332 327 322 332 348 338 332 328 331 331 337 350
273 273 276 280 285 289 292 295 298 300 302 305 310 312 306 293 287 290 293 297 299 297 294 303 310 319 328 325 329 336 344 349 339 333 334 329 338 353
275 279 284 288 291 293 296 298 302 306 307 309 311 310 308 299 295 295 295 297 297 290 292 299 308 317 331 343 342 342 343 350 1 4 344 335 347 337
283 286 288 290 293 296 300 305 309 309 308 308 306 303 304 303 299 297 297 297 294 287 292 295 301 312 330 339 348 350 347 354 0 9 20 8 352 340